period_start,C,m1,H,J0,J1,J2,J3,J4,J5,JA,JB,JC,JD,JJ,JK,JN,#
2014-08-21 00:04:55,-0.02,6.58,0.00,29.01,33.90,36.15,9.38,48.25,997.96,2004.97,1532.62,1984.98,2046.99,500.58,478.42,6.30,0000 0000 0000 0000 000000
2014-08-21 00:09:56,-0.01,6.58,0.00,29.00,33.88,36.14,9.37,48.42,998.06,2004.99,1532.85,1984.99,2046.99,500.05,477.99,6.34,0000 0000 0000 0000 000000
2014-08-21 00:14:57,0.01,6.57,0.00,28.94,33.85,36.13,9.33,48.33,998.10,2004.99,1532.80,1984.99,2046.99,500.76,478.79,6.38,0000 0000 0000 0000 000000
2014-08-21 00:19:58,-0.01,6.57,0.00,28.91,33.83,36.10,9.29,48.27,998.36,2004.99,1532.86,1984.99,2046.99,499.68,478.32,6.43,0000 0000 0000 0000 000000
2014-08-21 00:25:00,-0.00,6.57,0.00,28.91,33.81,36.08,9.34,48.33,998.48,2005.00,1532.95,1985.00,2046.99,499.91,478.08,6.47,0000 0000 0000 0000 000000
2014-08-21 00:30:01,-0.00,6.57,0.00,28.87,33.78,36.05,9.33,48.37,998.52,2005.01,1532.99,1985.05,2046.99,499.78,478.18,6.51,0000 0000 0000 0000 000000
2014-08-21 00:35:02,-0.01,6.57,0.00,28.86,33.76,36.02,9.33,48.42,998.55,2005.02,1532.99,1985.17,2047.00,499.83,478.49,6.55,0000 0000 0000 0000 000000
2014-08-21 00:40:03,0.00,6.57,0.00,28.82,33.74,35.98,9.37,48.28,998.55,2005.12,1532.99,1985.45,2047.02,500.09,478.55,6.59,0000 0000 0000 0000 000000
2014-08-21 00:45:04,0.00,6.57,0.00,28.81,33.71,35.97,9.29,48.52,998.55,2005.27,1533.01,1985.74,2047.07,499.88,478.20,6.64,0000 0000 0000 0000 000000
2014-08-21 00:50:05,0.02,6.57,0.00,28.78,33.69,35.94,9.26,48.53,998.55,2005.51,1533.02,1985.91,2047.21,499.94,478.49,6.68,0000 0000 0000 0000 000000
2014-08-21 00:55:06,0.04,6.58,0.00,28.75,33.66,35.92,9.31,48.33,998.57,2005.86,1533.03,1985.97,2047.57,499.77,478.39,6.72,0000 0000 0000 0000 000000
2014-08-21 01:00:08,-0.00,6.58,0.00,28.70,33.64,35.91,9.32,48.54,998.58,2005.98,1533.12,1985.99,2047.85,499.88,478.56,6.76,0000 0000 0000 0000 000000
2014-08-21 01:05:09,-0.01,6.58,0.00,28.67,33.62,35.89,9.32,48.59,998.56,2005.99,1533.33,1985.99,2047.98,499.66,478.44,6.80,0000 0000 0000 0000 000000
2014-08-21 01:10:10,-0.01,6.58,0.00,28.67,33.60,35.88,9.35,48.55,998.58,2005.99,1533.41,1986.00,2047.99,499.94,478.77,6.84,0000 0000 0000 0000 000000
2014-08-21 01:15:12,0.00,6.58,0.00,28.64,33.57,35.87,9.32,48.62,998.76,2005.99,1533.51,1986.00,2047.99,499.90,478.83,6.89,0000 0000 0000 0000 000000
2014-08-21 01:20:13,-0.02,6.58,0.00,28.61,33.55,35.83,9.34,48.67,998.71,2006.00,1533.64,1986.04,2048.00,500.00,478.87,6.93,0000 0000 0000 0000 000000
2014-08-21 01:25:14,-0.03,6.57,0.00,28.56,33.52,35.81,9.31,48.56,998.57,2006.05,1533.91,1986.21,2048.08,499.51,478.75,6.97,0000 0000 0000 0000 000000
2014-08-21 01:30:15,0.02,6.57,0.00,28.54,33.50,35.78,9.33,48.61,998.83,2006.35,1533.99,1986.75,2048.27,499.84,479.05,7.01,0000 0000 0000 0000 000000
2014-08-21 01:35:16,-0.01,6.57,0.00,28.53,33.47,35.78,9.34,48.48,999.04,2006.50,1533.99,1986.87,2048.56,499.81,478.91,7.05,0000 0000 0000 0000 000000
2014-08-21 01:40:17,0.04,6.57,0.00,28.49,33.44,35.73,9.40,48.56,999.05,2006.77,1533.99,1986.98,2048.84,500.86,480.05,7.10,0000 0000 0000 0000 000000
2014-08-21 01:45:19,0.01,6.58,0.00,28.46,33.41,35.71,9.30,48.58,999.33,2006.96,1533.99,1986.99,2048.97,499.81,479.16,7.14,0000 0000 0000 0000 000000
2014-08-21 01:50:20,-0.00,6.58,0.00,28.43,33.39,35.70,9.41,48.43,999.53,2006.99,1534.02,1986.99,2048.99,500.28,479.63,7.18,0000 0000 0000 0000 000000
2014-08-21 01:55:21,0.00,6.58,0.00,28.42,33.36,35.66,9.34,48.37,999.53,2006.99,1534.03,1986.99,2048.99,500.01,479.42,7.22,0000 0000 0000 0000 000000
2014-08-21 02:00:22,-0.02,6.58,0.00,28.36,33.34,35.64,9.32,48.32,999.53,2007.00,1534.15,1987.06,2049.01,499.48,479.33,7.26,0000 0000 0000 0000 000000
2014-08-21 02:05:24,-0.01,6.57,0.00,28.33,33.31,35.62,9.35,48.42,999.53,2007.05,1534.27,1987.30,2049.10,500.09,479.94,7.31,0000 0000 0000 0000 000000
2014-08-21 02:10:25,-0.01,6.57,0.00,28.31,33.28,35.60,9.39,48.61,999.53,2007.15,1534.38,1987.55,2049.20,500.25,479.96,7.35,0000 0000 0000 0000 000000
2014-08-21 02:15:26,-0.00,6.57,0.00,28.26,33.26,35.57,9.30,48.63,999.53,2007.32,1534.50,1987.77,2049.44,499.96,479.65,7.39,0000 0000 0000 0000 000000
2014-08-21 02:20:27,0.03,6.57,0.00,28.23,33.23,35.54,9.35,48.43,999.54,2007.72,1534.64,1987.95,2049.81,499.88,479.75,7.43,0000 0000 0000 0000 000000
2014-08-21 02:25:28,0.01,6.58,0.00,28.20,33.20,35.54,9.35,48.48,999.59,2007.89,1534.75,1987.98,2049.94,500.17,480.05,7.47,0000 0000 0000 0000 000000
2014-08-21 02:30:30,-0.00,6.58,0.00,28.17,33.17,35.50,9.35,48.37,999.77,2007.99,1534.88,1987.99,2049.99,499.84,479.94,7.51,0000 0000 0000 0000 000000
2014-08-21 02:35:31,-0.00,6.58,0.00,28.14,33.14,35.45,9.32,48.52,999.56,2007.99,1534.95,1987.99,2049.99,499.68,479.72,7.56,0000 0000 0000 0000 000000
2014-08-21 02:40:33,0.00,6.58,0.00,28.10,33.11,35.46,9.29,48.66,999.54,2007.99,1534.97,1988.03,2049.99,499.56,479.56,7.60,0000 0000 0000 0000 000000
2014-08-21 02:45:34,0.00,6.58,0.00,28.07,33.09,35.44,9.36,48.51,999.74,2008.00,1534.98,1988.08,2050.04,500.19,480.43,7.64,0000 0000 0000 0000 000000
2014-08-21 02:50:35,-0.01,6.57,0.00,28.07,33.06,35.42,9.41,48.46,999.73,2008.04,1534.99,1988.32,2050.16,500.07,480.34,7.68,0000 0000 0000 0000 000000
2014-08-21 02:55:36,0.02,6.57,0.00,28.02,33.03,35.41,9.38,48.38,999.94,2008.33,1534.99,1988.71,2050.58,499.89,480.23,7.72,0000 0000 0000 0000 000000
2014-08-21 03:00:37,0.04,6.58,0.00,27.97,33.00,35.36,9.38,48.43,1000.02,2008.81,1534.99,1988.96,2050.91,500.05,480.62,7.77,0000 0000 0000 0000 000000
2014-08-21 03:05:39,0.01,6.58,0.00,27.95,32.97,35.34,9.37,48.36,1000.20,2008.97,1534.99,1988.98,2050.97,500.36,481.09,7.81,0000 0000 0000 0000 000000
2014-08-21 03:10:40,-0.00,6.58,0.00,27.90,32.94,35.32,9.31,48.42,1000.43,2008.99,1534.99,1988.99,2050.99,499.78,480.68,7.85,0000 0000 0000 0000 000000
2014-08-21 03:15:41,-0.00,6.58,0.00,27.87,32.91,35.27,9.39,48.43,1000.44,2008.99,1535.00,1988.99,2050.99,500.11,480.97,7.89,0000 0000 0000 0000 000000
2014-08-21 03:20:42,0.00,6.58,0.00,27.85,32.88,35.25,9.37,48.52,1000.47,2009.00,1535.00,1989.02,2050.99,499.67,480.86,7.93,0000 0000 0000 0000 000000
2014-08-21 03:25:43,-0.00,6.58,0.00,27.80,32.85,35.21,9.33,48.51,1000.51,2009.02,1535.01,1989.09,2051.05,499.94,481.06,7.97,0000 0000 0000 0000 000000
2014-08-21 03:30:44,-0.00,6.58,0.00,27.78,32.82,35.18,9.40,48.58,1000.55,2009.21,1535.05,1989.42,2051.27,500.42,481.39,8.02,0000 0000 0000 0000 000000
2014-08-21 03:35:45,0.03,6.58,0.00,27.78,32.79,35.15,9.33,48.52,1000.88,2009.60,1535.02,1989.76,2051.73,500.19,481.42,8.06,0000 0000 0000 0000 000000
2014-08-21 03:40:46,0.02,6.58,0.00,27.73,32.76,35.13,9.34,48.46,1001.00,2009.91,1535.03,1989.94,2051.95,499.64,480.98,8.10,0000 0000 0000 0000 000000
2014-08-21 03:45:48,0.00,6.58,0.00,27.70,32.73,35.09,9.43,48.37,1001.01,2009.98,1535.03,1989.98,2051.99,500.25,481.67,8.14,0000 0000 0000 0000 000000
2014-08-21 03:50:48,-0.01,6.58,0.00,27.71,32.70,35.06,9.40,48.18,1001.02,2009.99,1535.18,1989.99,2051.99,500.34,481.75,8.18,0000 0000 0000 0000 000000
2014-08-21 03:55:50,-0.03,6.58,0.00,27.65,32.67,35.02,9.44,48.36,1001.06,2009.99,1535.59,1990.00,2052.00,500.25,481.73,8.23,0000 0000 0000 0000 000000
2014-08-21 04:00:51,-0.01,6.58,0.00,27.62,32.64,35.01,9.43,48.51,1001.15,2010.03,1535.85,1990.02,2052.03,500.15,481.63,8.27,0000 0000 0000 0000 000000
2014-08-21 04:05:52,0.05,6.58,0.00,27.60,32.61,34.96,9.38,48.51,1001.35,2010.28,1535.61,1990.11,2052.22,499.73,481.35,8.31,0000 0000 0000 0000 000000
2014-08-21 04:10:53,-0.03,6.58,0.00,27.57,32.58,34.95,9.44,48.45,1001.13,2010.64,1535.89,1990.51,2052.64,500.14,481.95,8.35,0000 0000 0000 0000 000000
2014-08-21 04:15:54,0.01,6.58,0.00,27.55,32.55,34.92,9.46,48.50,1001.11,2010.93,1535.97,1990.87,2052.93,500.25,481.79,8.39,0000 0000 0000 0000 000000
2014-08-21 04:20:55,-0.00,6.58,0.00,27.51,32.52,34.88,9.40,48.57,1001.29,2010.97,1535.99,1990.96,2052.97,500.13,482.02,8.43,0000 0000 0000 0000 000000
2014-08-21 04:25:56,0.00,6.58,0.00,27.48,32.50,34.84,9.42,48.55,1001.19,2010.99,1535.99,1990.97,2052.98,499.91,481.69,8.48,0000 0000 0000 0000 000000
2014-08-21 04:30:58,-0.00,6.58,0.00,27.45,32.47,34.81,9.42,48.56,1001.36,2010.99,1535.99,1990.99,2052.99,499.82,481.91,8.52,0000 0000 0000 0000 000000
2014-08-21 04:35:59,0.00,6.58,0.00,27.42,32.44,34.80,9.39,48.58,1001.37,2011.02,1535.99,1991.00,2053.00,500.12,482.12,8.56,0000 0000 0000 0000 000000
2014-08-21 04:41:00,0.02,6.58,0.00,27.41,32.41,34.78,9.40,48.78,1001.42,2011.08,1535.99,1991.01,2053.01,500.12,482.17,8.60,0000 0000 0000 0000 000000
2014-08-21 04:46:01,0.05,6.58,0.00,27.39,32.38,34.73,9.39,48.82,1001.41,2011.31,1535.99,1991.04,2053.04,499.88,482.11,8.64,0000 0000 0000 0000 000000
2014-08-21 04:51:02,0.05,6.58,0.00,27.36,32.35,34.71,9.40,48.76,1001.63,2011.88,1536.00,1991.18,2053.25,500.30,482.55,8.69,0000 0000 0000 0000 000000
2014-08-21 04:56:03,-0.01,6.58,0.00,27.34,32.32,34.67,9.38,48.52,1001.96,2011.97,1536.00,1991.26,2053.50,500.04,482.63,8.73,0000 0000 0000 0000 000000
2014-08-21 05:01:05,-0.04,6.58,0.00,27.32,32.30,34.66,9.45,48.77,1002.01,2011.99,1536.01,1991.64,2053.84,499.55,482.00,8.77,0000 0000 0000 0000 000000
2014-08-21 05:06:06,0.00,6.58,0.00,27.28,32.27,34.64,9.45,48.74,1002.34,2011.99,1536.00,1991.74,2053.90,499.88,482.68,8.81,0000 0000 0000 0000 000000
2014-08-21 05:11:07,-0.01,6.58,0.00,27.27,32.24,34.58,9.47,48.53,1002.46,2012.02,1536.00,1991.94,2053.98,500.13,482.94,8.85,0000 0000 0000 0000 000000
2014-08-21 05:16:09,0.01,6.58,0.00,27.26,32.21,34.55,9.51,48.74,1002.47,2012.14,1536.03,1991.98,2053.99,500.53,483.43,8.89,0000 0000 0000 0000 000000
2014-08-21 05:21:10,0.06,6.58,0.00,27.26,32.19,34.51,9.40,48.54,1002.47,2012.42,1536.06,1991.99,2053.99,499.80,482.84,8.94,0000 0000 0000 0000 000000
2014-08-21 05:26:11,0.03,6.59,0.00,27.25,32.16,34.46,9.42,48.55,1002.60,2012.79,1536.18,1991.99,2053.99,499.93,483.00,8.98,0000 0000 0000 0000 000000
2014-08-21 05:31:12,-0.00,6.59,0.00,27.22,32.14,34.44,9.45,48.53,1002.81,2012.97,1536.47,1991.99,2054.02,500.46,483.32,9.02,0000 0000 0000 0000 000000
2014-08-21 05:36:13,0.01,6.59,0.00,27.19,32.11,34.43,9.46,48.48,1002.94,2012.99,1536.26,1992.00,2054.04,500.45,483.59,9.06,0000 0000 0000 0000 000000
2014-08-21 05:41:14,0.01,6.59,0.00,27.17,32.09,34.36,9.40,48.67,1002.94,2012.99,1536.30,1992.02,2054.13,500.39,483.71,9.10,0000 0000 0000 0000 000000
2014-08-21 05:46:16,-0.04,6.59,0.00,27.17,32.06,34.34,9.40,48.44,1003.03,2012.99,1536.51,1992.11,2054.40,500.07,483.36,9.15,0000 0000 0000 0000 000000
2014-08-21 05:51:17,-0.01,6.58,0.00,27.16,32.05,34.31,9.43,48.33,1003.37,2012.99,1536.59,1992.25,2054.69,499.70,483.14,9.19,0000 0000 0000 0000 000000
2014-08-21 05:56:18,-0.06,6.58,0.00,27.14,32.02,34.28,9.42,48.43,1003.51,2013.03,1536.81,1992.62,2054.92,500.27,483.87,9.23,0000 0000 0000 0000 000000
2014-08-21 06:01:19,-0.01,6.58,0.00,27.12,32.00,34.26,9.39,48.42,1003.84,2013.11,1536.87,1992.87,2054.98,499.73,483.43,9.27,0000 0000 0000 0000 000000
2014-08-21 06:06:20,0.03,6.58,0.00,27.10,31.97,34.23,9.39,48.49,1003.92,2013.21,1536.91,1992.93,2054.99,499.85,483.80,9.31,0000 0000 0000 0000 000000
2014-08-21 06:11:21,0.05,6.58,0.00,27.09,31.95,34.21,9.45,48.38,1003.93,2013.61,1536.90,1992.96,2054.99,500.31,484.17,9.36,0000 0000 0000 0000 000000
2014-08-21 06:16:22,0.03,6.59,0.00,27.05,31.93,34.20,9.48,48.37,1003.93,2013.87,1536.93,1992.99,2054.99,500.06,483.88,9.40,0000 0000 0000 0000 000000
2014-08-21 06:21:23,0.00,6.59,0.00,27.02,31.91,34.18,9.44,48.34,1003.98,2013.94,1536.98,1992.99,2054.99,500.07,484.18,9.44,0000 0000 0000 0000 000000
2014-08-21 06:26:24,0.00,6.59,0.00,27.02,31.88,34.16,9.46,48.48,1004.28,2013.98,1536.99,1993.00,2055.01,500.22,484.28,9.48,0000 0000 0000 0000 000000
2014-08-21 06:31:25,0.00,6.59,0.00,27.01,31.86,34.12,9.51,48.24,1004.39,2013.99,1536.99,1993.00,2055.05,500.16,484.27,9.52,0000 0000 0000 0000 000000
2014-08-21 06:36:26,-0.01,6.59,0.00,27.00,31.84,34.10,9.38,48.23,1004.40,2013.99,1536.99,1993.04,2055.26,499.67,483.79,9.56,0000 0000 0000 0000 000000
2014-08-21 06:41:27,-0.03,6.59,0.00,26.97,31.82,34.08,9.40,48.26,1004.41,2014.00,1537.00,1993.17,2055.76,500.02,484.19,9.61,0000 0000 0000 0000 000000
2014-08-21 06:46:28,0.01,6.59,0.00,26.98,31.80,34.07,9.44,48.46,1004.41,2014.01,1537.00,1993.19,2055.75,499.82,484.13,9.65,0000 0000 0000 0000 000000
2014-08-21 06:51:29,-0.01,6.58,0.00,26.96,31.78,34.04,9.43,48.57,1004.43,2014.05,1537.00,1993.41,2055.92,499.83,483.92,9.69,0000 0000 0000 0000 000000
2014-08-21 06:56:30,0.01,6.59,0.00,26.93,31.76,34.02,9.44,48.62,1004.70,2014.27,1537.00,1993.63,2055.97,499.61,484.16,9.73,0000 0000 0000 0000 000000
2014-08-21 07:01:31,0.04,6.59,0.00,26.91,31.74,34.01,9.48,48.63,1004.90,2014.75,1537.00,1993.91,2055.99,500.02,484.62,9.77,0000 0000 0000 0000 000000
2014-08-21 07:06:33,0.03,6.59,0.00,26.89,31.71,33.98,9.42,48.76,1004.90,2014.88,1537.02,1993.95,2055.99,499.49,484.22,9.81,0000 0000 0000 0000 000000
2014-08-21 07:11:34,-0.00,6.59,0.00,26.86,31.70,33.96,9.49,48.61,1004.95,2014.94,1537.04,1993.99,2055.99,500.17,484.93,9.86,0000 0000 0000 0000 000000
2014-08-21 07:16:35,0.00,6.59,0.00,26.85,31.67,33.92,9.44,48.48,1005.33,2014.98,1537.04,1993.99,2055.99,500.27,485.10,9.90,0000 0000 0000 0000 000000
2014-08-21 07:21:36,-0.00,6.59,0.00,26.83,31.66,33.91,9.44,48.48,1005.39,2014.98,1537.00,1993.99,2056.00,499.96,484.90,9.94,0000 0000 0000 0000 000000
2014-08-21 07:26:37,0.00,6.59,0.00,26.83,31.64,33.90,9.48,48.18,1005.45,2014.99,1537.01,1993.99,2056.02,500.44,485.42,9.98,0000 0000 0000 0000 000000
2014-08-21 07:31:38,-0.00,6.59,0.00,26.81,31.62,33.87,9.38,48.28,1005.62,2015.00,1537.01,1993.99,2056.04,499.55,484.70,10.02,0000 0000 0000 0000 000000
2014-08-21 07:36:40,-0.01,6.59,0.00,26.78,31.60,33.86,9.44,48.46,1005.84,2015.01,1537.06,1994.01,2056.08,499.75,485.05,10.07,0000 0000 0000 0000 000000
2014-08-21 07:41:40,-0.01,6.59,0.00,26.78,31.58,33.83,9.39,48.25,1005.87,2015.01,1537.07,1994.02,2056.22,500.00,485.27,10.11,0000 0000 0000 0000 000000
2014-08-21 07:46:42,0.00,6.59,0.00,26.76,31.56,33.81,9.44,48.44,1005.89,2015.06,1537.03,1994.04,2056.49,500.41,485.51,10.15,0000 0000 0000 0000 000000
2014-08-21 07:51:43,0.01,6.59,0.00,26.74,31.55,33.81,9.50,48.59,1006.18,2015.22,1537.02,1994.15,2056.87,500.22,485.67,10.19,0000 0000 0000 0000 000000
2014-08-21 07:56:44,0.04,6.59,0.00,26.73,31.52,33.79,9.43,48.51,1006.36,2015.59,1537.00,1994.43,2056.96,500.16,485.73,10.23,0000 0000 0000 0000 000000
2014-08-21 08:01:46,0.00,6.59,0.00,26.69,31.50,33.78,9.47,48.36,1006.52,2015.88,1537.00,1994.86,2056.98,499.72,485.43,10.27,0000 0000 0000 0000 000000
2014-08-21 08:06:47,-0.01,6.59,0.00,26.66,31.48,33.76,9.40,48.26,1006.84,2015.83,1537.00,1994.84,2056.97,499.53,485.47,10.32,0000 0000 0000 0000 000000
2014-08-21 08:11:48,0.01,6.59,0.00,26.63,31.46,33.73,9.47,48.59,1006.86,2015.93,1537.00,1994.96,2056.99,499.86,485.84,10.36,0000 0000 0000 0000 000000
2014-08-21 08:16:49,0.00,6.59,0.00,26.63,31.45,33.72,9.47,48.52,1006.93,2015.98,1537.00,1994.97,2056.99,499.64,485.75,10.40,0000 0000 0000 0000 000000
2014-08-21 08:21:50,-0.00,6.59,0.00,26.61,31.42,33.69,9.47,48.40,1007.13,2015.99,1536.99,1994.99,2056.99,500.37,486.56,10.44,0000 0000 0000 0000 000000
2014-08-21 08:26:52,0.00,6.59,0.00,26.60,31.41,33.68,9.57,48.48,1007.24,2015.99,1536.99,1994.99,2056.99,500.82,486.88,10.48,0000 0000 0000 0000 000000
2014-08-21 08:31:53,0.00,6.59,0.00,26.58,31.39,33.67,9.50,48.48,1007.30,2015.99,1536.98,1994.99,2057.04,500.05,486.39,10.53,0000 0000 0000 0000 000000
2014-08-21 08:36:54,0.00,6.59,0.00,26.57,31.37,33.63,9.49,48.68,1007.33,2015.99,1536.95,1994.99,2057.03,499.65,485.93,10.57,0000 0000 0000 0000 000000
2014-08-21 08:41:56,0.01,6.59,0.00,26.53,31.35,33.62,9.47,48.51,1007.34,2016.00,1536.65,1995.01,2057.09,499.95,486.29,10.61,0000 0000 0000 0000 000000
2014-08-21 08:46:57,-0.00,6.59,0.00,26.51,31.34,33.61,9.47,48.69,1007.34,2016.01,1536.69,1995.02,2057.24,499.67,485.97,10.65,0000 0000 0000 0000 000000
2014-08-21 08:51:58,0.00,6.59,0.00,26.50,31.32,33.58,9.50,48.76,1007.34,2016.01,1536.43,1995.05,2057.49,500.24,486.63,10.69,0000 0000 0000 0000 000000
2014-08-21 08:56:59,-0.03,6.59,0.00,26.48,31.30,33.56,9.57,49.18,1007.35,2016.06,1536.56,1995.30,2057.86,500.24,486.80,10.73,0000 0000 0000 0000 000000
2014-08-21 09:02:00,0.02,6.59,0.00,26.47,31.27,33.56,9.45,48.89,1007.62,2016.19,1536.43,1995.62,2057.96,500.05,486.71,10.78,0000 0000 0000 0000 000000
2014-08-21 09:07:02,0.02,6.59,0.00,26.45,31.25,33.54,9.46,48.82,1007.82,2016.44,1536.19,1995.86,2057.98,499.72,486.40,10.82,0000 0000 0000 0000 000000
2014-08-21 09:12:03,0.06,6.59,0.00,26.43,31.23,33.53,9.46,48.71,1007.83,2016.68,1536.02,1995.89,2057.98,500.06,486.65,10.86,0000 0000 0000 0000 000000
2014-08-21 09:17:04,0.03,6.60,0.00,26.40,31.21,33.49,9.51,48.59,1007.86,2016.93,1536.01,1995.96,2057.99,499.93,486.80,10.90,0000 0000 0000 0000 000000
2014-08-21 09:22:05,0.00,6.60,0.00,26.37,31.20,33.49,9.48,48.54,1008.10,2016.97,1536.00,1995.99,2057.99,499.80,486.81,10.94,0000 0000 0000 0000 000000
2014-08-21 09:27:07,0.00,6.60,0.00,26.35,31.17,33.44,9.49,48.49,1008.30,2016.99,1535.97,1995.99,2058.01,499.71,486.85,10.99,0000 0000 0000 0000 000000
2014-08-21 09:32:08,0.00,6.60,0.00,26.35,31.15,33.43,9.55,48.58,1008.32,2016.99,1535.90,1995.99,2058.03,500.32,487.40,11.03,0000 0000 0000 0000 000000
2014-08-21 09:37:09,-0.00,6.60,0.00,26.33,31.13,33.42,9.45,48.51,1008.33,2016.99,1535.86,1995.99,2058.05,499.50,486.75,11.07,0000 0000 0000 0000 000000
2014-08-21 09:42:10,-0.00,6.60,0.00,26.30,31.11,33.40,9.57,48.51,1008.40,2016.99,1535.94,1996.00,2058.14,500.06,487.36,11.11,0000 0000 0000 0000 000000
2014-08-21 09:47:11,-0.00,6.60,0.00,26.27,31.10,33.38,9.51,48.35,1008.72,2017.00,1535.90,1996.00,2058.28,500.14,487.47,11.15,0000 0000 0000 0000 000000
2014-08-21 09:52:12,0.01,6.60,0.00,26.25,31.07,33.37,9.52,48.62,1008.80,2017.07,1535.83,1996.02,2058.58,500.15,487.66,11.19,0000 0000 0000 0000 000000
2014-08-21 09:57:13,0.02,6.60,0.00,26.26,31.05,33.37,9.55,48.44,1008.79,2017.16,1535.84,1996.05,2058.77,500.41,487.92,11.24,0000 0000 0000 0000 000000
2014-08-21 10:02:14,0.04,6.60,0.00,26.22,31.03,33.33,9.53,48.54,1008.80,2017.45,1535.78,1996.13,2058.89,500.12,487.68,11.28,0000 0000 0000 0000 000000
2014-08-21 10:07:15,0.04,6.60,0.00,26.20,31.01,33.32,9.48,48.53,1008.80,2017.73,1535.52,1996.23,2058.96,499.74,487.53,11.32,0000 0000 0000 0000 000000
2014-08-21 10:12:16,0.03,6.60,0.00,26.20,30.99,33.29,9.41,48.44,1008.80,2017.88,1535.14,1996.30,2058.94,499.40,487.06,11.36,0000 0000 0000 0000 000000
2014-08-21 10:17:18,0.02,6.60,0.00,26.18,30.97,33.26,9.57,48.71,1008.80,2017.94,1535.05,1996.30,2058.94,500.33,487.93,11.40,0000 0000 0000 0000 000000
2014-08-21 10:22:19,-0.01,6.60,0.00,26.15,30.95,33.25,9.54,48.80,1008.80,2017.97,1535.01,1996.52,2058.98,500.50,488.20,11.45,0000 0000 0000 0000 000000
2014-08-21 10:27:20,-0.01,6.60,0.00,26.12,30.93,33.23,9.52,48.76,1008.81,2017.99,1535.00,1996.70,2058.99,500.21,487.82,11.49,0000 0000 0000 0000 000000
2014-08-21 10:32:22,-0.00,6.60,0.00,26.08,30.91,33.20,9.58,48.68,1008.80,2017.99,1535.00,1996.86,2058.98,500.67,488.52,11.53,0000 0000 0000 0000 000000
2014-08-21 10:37:23,-0.00,6.60,0.00,26.07,30.89,33.18,9.53,48.70,1008.81,2018.00,1535.00,1996.93,2058.99,500.06,487.93,11.57,0000 0000 0000 0000 000000
2014-08-21 10:42:24,-0.00,6.60,0.00,26.05,30.87,33.16,9.51,48.70,1008.86,2018.00,1535.00,1996.98,2058.99,500.10,488.04,11.61,0000 0000 0000 0000 000000
2014-08-21 10:47:25,0.01,6.60,0.00,26.02,30.85,33.16,9.58,48.66,1009.15,2018.02,1534.98,1996.97,2058.99,500.31,488.31,11.65,0000 0000 0000 0000 000000
2014-08-21 10:52:26,0.00,6.60,0.00,25.99,30.82,33.15,9.52,49.02,1009.28,2018.03,1534.94,1996.98,2058.99,499.88,488.02,11.70,0000 0000 0000 0000 000000
2014-08-21 10:57:27,0.04,6.60,0.00,25.97,30.80,33.12,9.58,49.08,1009.30,2018.19,1534.87,1996.99,2058.99,500.44,488.69,11.74,0000 0000 0000 0000 000000
2014-08-21 11:02:29,0.08,6.60,0.00,25.97,30.78,33.09,9.58,48.97,1009.51,2018.59,1534.80,1996.99,2059.00,499.90,488.34,11.78,0000 0000 0000 0000 000000
2014-08-21 11:07:30,0.04,6.61,0.00,25.96,30.76,33.07,9.53,48.79,1009.77,2018.86,1534.43,1996.99,2059.02,500.14,488.63,11.82,0000 0000 0000 0000 000000
2014-08-21 11:12:31,0.02,6.61,0.00,25.92,30.75,33.05,9.52,48.67,1009.79,2018.95,1534.10,1996.99,2059.04,499.69,488.19,11.86,0000 0000 0000 0000 000000
2014-08-21 11:17:32,0.00,6.61,0.00,25.88,30.72,33.06,9.57,48.82,1009.81,2018.96,1534.02,1996.99,2059.10,500.28,488.97,11.91,0000 0000 0000 0000 000000
2014-08-21 11:22:33,-0.00,6.61,0.00,25.85,30.70,33.02,9.58,48.80,1009.80,2018.98,1534.00,1997.02,2059.23,500.00,488.57,11.95,0000 0000 0000 0000 000000
2014-08-21 11:27:34,-0.01,6.61,0.00,25.83,30.68,33.00,9.56,49.00,1009.88,2018.99,1534.00,1997.04,2059.53,500.21,488.85,11.99,0000 0000 0000 0000 000000
2014-08-21 11:32:35,-0.01,6.61,0.00,25.82,30.66,32.97,9.54,48.95,1010.25,2018.99,1533.99,1997.10,2059.71,499.81,488.72,12.03,0000 0000 0000 0000 000000
2014-08-21 11:37:36,-0.01,6.61,0.00,25.80,30.63,32.92,9.53,48.94,1010.27,2018.99,1533.96,1997.23,2059.92,499.89,488.86,12.07,0000 0000 0000 0000 000000
2014-08-21 11:42:38,0.02,6.61,0.00,25.77,30.61,32.93,9.53,48.77,1010.27,2019.00,1533.61,1997.45,2059.95,499.90,488.92,12.11,0000 0000 0000 0000 000000
2014-08-21 11:47:39,0.00,6.61,0.00,25.77,30.59,32.89,9.46,48.88,1010.27,2019.01,1533.20,1997.74,2059.99,499.65,488.93,12.16,0000 0000 0000 0000 000000
2014-08-21 11:52:40,-0.01,6.61,0.00,25.75,30.57,32.88,9.54,48.87,1010.28,2019.03,1533.11,1997.93,2059.99,500.25,489.24,12.20,0000 0000 0000 0000 000000
2014-08-21 11:57:41,0.03,6.61,0.00,25.73,30.55,32.85,9.56,48.92,1010.30,2019.16,1533.01,1997.98,2059.99,500.19,489.34,12.24,0000 0000 0000 0000 000000
2014-08-21 12:02:42,0.01,6.61,0.00,25.71,30.52,32.84,9.57,48.94,1010.52,2019.39,1533.00,1997.99,2059.99,500.31,489.50,12.28,0000 0000 0000 0000 000000
2014-08-21 12:07:43,0.07,6.61,0.00,25.69,30.50,32.82,9.57,48.88,1010.70,2019.78,1533.00,1997.99,2060.01,499.87,489.22,12.32,0000 0000 0000 0000 000000
2014-08-21 12:12:44,0.01,6.62,0.00,25.70,30.48,32.77,9.56,48.86,1010.75,2019.95,1532.99,1997.99,2060.03,500.32,489.61,12.37,0000 0000 0000 0000 000000
2014-08-21 12:17:45,0.00,6.61,0.00,25.67,30.46,32.75,9.56,48.68,1010.76,2019.97,1532.98,1997.99,2060.09,499.70,489.31,12.41,0000 0000 0000 0000 000000
2014-08-21 12:22:47,-0.01,6.61,0.00,25.64,30.45,32.76,9.56,48.69,1010.76,2019.98,1532.88,1997.99,2060.32,500.01,489.48,12.45,0000 0000 0000 0000 000000
2014-08-21 12:27:48,0.00,6.62,0.00,25.61,30.42,32.72,9.56,48.88,1010.76,2019.99,1532.65,1998.01,2060.76,499.95,489.74,12.49,0000 0000 0000 0000 000000
2014-08-21 12:32:50,-0.01,6.61,0.00,25.60,30.40,32.69,9.55,48.99,1010.76,2019.99,1532.52,1998.11,2060.94,500.11,489.63,12.53,0000 0000 0000 0000 000000
2014-08-21 12:37:51,0.02,6.62,0.00,25.57,30.38,32.68,9.56,49.11,1010.76,2020.00,1532.19,1998.26,2060.98,499.85,489.43,12.57,0000 0000 0000 0000 000000
2014-08-21 12:42:52,-0.02,6.62,0.00,25.55,30.36,32.66,9.55,48.88,1010.76,2020.00,1532.05,1998.44,2060.98,499.92,489.55,12.62,0000 0000 0000 0000 000000
2014-08-21 12:47:53,-0.01,6.61,0.00,25.53,30.34,32.66,9.54,48.96,1010.76,2020.01,1532.03,1998.72,2060.99,500.32,489.93,12.66,0000 0000 0000 0000 000000
2014-08-21 12:52:54,-0.01,6.61,0.00,25.52,30.32,32.63,9.58,49.05,1010.76,2020.06,1532.01,1998.95,2060.99,499.88,489.64,12.70,0000 0000 0000 0000 000000
2014-08-21 12:57:56,0.01,6.61,0.00,25.50,30.30,32.60,9.52,49.15,1010.76,2020.12,1532.00,1998.97,2060.99,499.69,489.35,12.74,0000 0000 0000 0000 000000
2014-08-21 13:02:57,0.06,6.62,0.00,25.46,30.28,32.58,9.53,49.11,1010.76,2020.47,1532.00,1998.99,2061.00,499.81,489.55,12.78,0000 0000 0000 0000 000000